Regional Weather Roundup
Issued by NWS

Home | Current Version | Previous Version | Text Only | Print | Product List | Glossary On
Versions: 1 2 3 4 5 6 7 8 9 10 11 12 13 14 15 16 17 18 19 20 21 22 23 24 25 26 27 28 29 30 31 32 33 34 35 36 37 38 39 40 41 42 43 44 45 46 47 48 49 50
000
ASUS46 KLOX 011512
RWRCA

SOUTHERN CALIFORNIA WEATHER ROUNDUP
NATIONAL WEATHER SERVICE OXNARD CALIFORNIA
700 AM PST SUN FEB 01 2015

NOTE: "FAIR" INDICATES FEW OR NO CLOUDS BELOW 12,000 FEET WITH NO
SIGNIFICANT WEATHER AND/OR OBSTRUCTIONS TO VISIBILITY.

  -  STATIONS PRECEEDED BY AN ASTERISK (*) ARE NOT NWS OR FAA
     STATIONS AND ARE NOT SUBJECT TO NWS AND FAA QUALITY CONTROL.

CAZ041-042-087-011600-
LA AND ORANGE COUNTY COASTAL AREAS


CITY           SKY/WX    TMP DP  RH WIND       PRES   REMARKS
L.A. DOWNTOWN  CLEAR     50  45  83 CALM      30.06R
L.A. AIRPORT   CLEAR     51  47  86 E3        30.07R
LONG BEACH     CLEAR     50  48  93 CALM      30.07R

CITY           SKY/WX    TMP DP  RH WIND       PRES   REMARKS
AVALON           N/A    N/A N/A N/A MISG        N/A
FULLERTON      CLEAR     50  45  83 CALM      30.06R
HAWTHORNE      CLEAR     51  48  89 CALM      30.07R
*LEO CARRILLO    N/A     56  49  78 N3          N/A
*LOS ALAMITOS  FAIR      47  47  99 CALM      30.07R
*REDONDO BEACH   N/A     48  45  88 CALM      30.08R
SANTA ANA      CLEAR     54  48  80 CALM      30.07R
STA MONICA APT CLEAR     50  46  86 NE5       30.06R
TORRANCE       CLEAR     50  45  81 SW7       30.07
*UCLA            N/A     55  41  58 CALM      30.04R

$$

CAZ547-548-048-011600-
LA COUNTY VALLEYS AND INLAND EMPIRE


CITY           SKY/WX    TMP DP  RH WIND       PRES   REMARKS
BURBANK        CLEAR     48  40  73 CALM      30.06R
VAN NUYS       CLEAR     50  37  61 CALM      30.06R

CITY           SKY/WX    TMP DP  RH WIND       PRES   REMARKS
CORONA AIRPORT SUNNY     39  39 100 CALM      30.09R
CHINO          PTCLDY    45  42  89 CALM      30.10R
*CLAREMONT       N/A     50  39  66 NE2         N/A
MARCH AFB      CLEAR     36  36 100 CALM      30.10R
*NORTHRIDGE      N/A     52  36  54 E1          N/A
ONTARIO        PTCLDY    49  41  74 NE3       30.08R
*PASADENA        N/A     52  43  71 E1          N/A
POMONA         CLEAR     46  39  76 CALM        N/A
RIVERSIDE      CLEAR     48  41  76 VRB3      30.09R
SAN BERNARDINO CLEAR     46  36  66 E5        30.08
*WHITEMAN AP   NOT AVBL
*WOODLAND HILL   N/A     48  37  66 N1          N/A

$$

CAZ054-055-011600-
LA AND SAN BERNARDINO COUNTY MOUNTAINS


CITY           SKY/WX    TMP DP  RH WIND       PRES   REMARKS
*ACTON           N/A     40  32  73 CALM        N/A
*BIG BEAR AIRP SUNNY     27  23  86 CALM      30.24R
*BIG PINES       N/A     35  15  44 CALM        N/A
*CHILAO          N/A     51   6  16 NE26        N/A
MT WILSON NWS    N/A    N/A N/A N/A MISG        N/A
SANDBERG       CLEAR     49  26  41 NE9       30.18R
*WARM SPRINGS    N/A     50  28  43 NE21        N/A

$$

CAZ028-029-059-060-099-011600-
ANTELOPE VALLEY AND SURROUNDING AREAS


CITY           SKY/WX    TMP DP  RH WIND       PRES   REMARKS
LANCASTER      CLEAR     35  31  85 CALM      30.18R
PALMDALE       CLEAR     35  31  85 S3        30.17R

CITY           SKY/WX    TMP DP  RH WIND       PRES   REMARKS
29 PALMS       CLEAR     52  36  54 NW14      30.20R
BARSTOW/DAGGET CLEAR     41  36  82 W12       30.16R WCI  34
BISHOP         CLEAR     32   7  35 N6        30.20R WCI  26
CHINA LAKE     CLEAR     33  29  85 CALM      30.16R
EDWARDS AFB    CLEAR     34  33  96 E5        30.15R WCI  30
MOJAVE         FAIR      37  28  70 CALM      30.17R
NEEDLES        CLEAR     55  35  47 NW5       30.11R
VICTORVILLE      N/A     37  34  87 S5        30.18R WCI  34

$$

CAZ039-040-011600-
VENTURA AND SANTA BARBARA COUNTY COAST


CITY           SKY/WX    TMP DP  RH WIND       PRES   REMARKS
CAMARILLO      CLEAR     47  39  74 CALM      30.06R
NWS OXNARD       N/A     50  40  68 CALM      30.06R
OXNARD AIRPORT CLEAR     55  39  54 NE8       30.06R
*POINT MUGU    CLEAR     52  42  69 N7        30.06R
SBA APT/GOLETA CLEAR     45  42  89 CALM      30.06R
*SANTA BARBARA   N/A     49  43  81 CALM      30.14S
*VENTURA         N/A     58  34  40 N12       30.11S

$$

CAZ044-045-011600-
VENTURA COUNTY VALLEYS


CITY           SKY/WX    TMP DP  RH WIND       PRES   REMARKS
*SIMI VALLEY     N/A     59  35  41 NE6       30.06R
*OJAI            N/A     37  35  92 CALM      30.07R
*FILLMORE        N/A     41  38  88 CALM      30.00R

$$

CAZ053-011600-
VENTURA COUNTY MOUNTAINS


CITY           SKY/WX    TMP DP  RH WIND       PRES   REMARKS
*LOCKWOOD VLY    N/A     25  16  68 MISG        N/A
*ROSE VALLEY     N/A     25  27 100 MISG        N/A

$$

CAZ034-035-036-011600-
CENTRAL COAST AND SANTA YNEZ VALLEY


CITY           SKY/WX    TMP DP  RH WIND       PRES   REMARKS
SAN LUIS OBISP CLEAR     38  34  85 CALM      30.10R
SANTA MARIA    CLEAR     46  40  79 CALM      30.10R

CITY           SKY/WX    TMP DP  RH WIND       PRES   REMARKS
*CAL POLY SLO    N/A     41  39  93 CALM        N/A
*LOMPOC        CLEAR     43  37  81 E6        30.09R
*PISMO BEACH     N/A     44  38  80 NE3       30.10R
*SANTA YNEZ    FAIR      39  37  93 CALM      30.10R

$$

CAZ037-038-051-011600-
SAN LUIS OBISPO COUNTY INTERIOR AND CUYAMA VALLEY


CITY           SKY/WX    TMP DP  RH WIND       PRES   REMARKS
*CUYAMA          N/A     37  33  83 CALM      30.14R
PASO ROBLES    FOG       34  32  92 CALM      30.15R VSB 1/4

$$

CAZ032-033-061-011600-
SOUTHERN DESERTS


CITY           SKY/WX    TMP DP  RH WIND       PRES   REMARKS
BLYTHE         CLEAR     52  43  71 NW10      30.07R
IMPERIAL       CLEAR     49  40  71 SW5       30.05R
PALM SPRINGS   CLEAR     56  38  50 NE6       30.08R
THERMAL        CLEAR     49  40  71 W5        30.04R

$$

ELSEWHERE ACROSS THE WESTERN UNITED STATES AND MEXICO


CITY           SKY/WX    TMP DP  RH WIND       PRES   REMARKS
DENVER, CO     CLOUDY    20  16  84 NE10      30.12R WCI   9
GRAND CANYON,  CLEAR     20  18  92 NE5       30.19R WCI  13
HONOLULU, HI   PTCLDY    70  63  78 NW7       29.97S
KAHULUI, MAUI  CLOUDY    73  68  83 NE14      29.98R
LAKE TAHOE, CA CLEAR     21  13  71 S3        30.26R
LAS VEGAS, NV  CLEAR     44  36  73 SW7       30.14R
MAMMOTH LAKES, FAIR      14   5  67 CALM      30.29R
MEXICO CITY, M SUNNY     55  37  50 CALM      30.29R
PHOENIX, AZ    FOG       51  51 100 N3        30.06R VSB 1/4
PORTLAND, OR   LGT RAIN  40  37  89 SE10      30.12S WCI  33
RENO, NV       PTCLDY    26  18  71 CALM      30.24R
SALT LAKE CITY PTCLDY    28  24  85 SE6       30.21S WCI  22
SAN DIEGO, CA  PTCLDY    54  48  80 CALM      30.08R
SAN FRANCISCO, PTCLDY    48  46  93 W9        30.12R
SAN JOSE, CA   PTCLDY    42  33  70 SE6       30.11R
SEATTLE, WA    CLOUDY    41  40  96 CALM      30.03F
TIJUANA, MEX   CLEAR     50  46  87 CALM      30.09S

$$

STATION/POSITION TIME  TEMP    WIND        PRES    VSBY  WAVE
                       AIR SEA DIR/SP/G                  HT/PER
                 (UTC) (F)     (DEG/KT/KT) (MB)    (MI)  (FT/S)
POINT ARGUELLO B NOT AVBL
WEST SANTA BARBA 1500   60 60  310/ 10/ 12 1017.4R         5/14
POINT CONCEPTION NOT AVBL
EAST SANTA BARBA NOT AVBL
SANTA MONICA BAY 1500   62 62  320/ 10/ 12 1018.1R         4/14


USA.gov is the U.S. government's official web portal to all federal, state and local government web resources and services.